Home   Weather   Tel Aviv   Past weeks

Flag for Israel Past Weather in Tel Aviv, Israel — Yesterday and Last 2 Weeks

Now
81 °F

Scattered clouds.


Feels Like: 82 °F
Forecast: 76 / 83 °F
Wind: 14 mph from Northwest

Location: Ben Gurion International Airport

Current Time: Sep 28, 2016 at 4:50:26 PM

Latest Report: Sep 28, 2016 at 4:20 PM


Visibility: N/A

Pressure: 30.01 "Hg

Humidity: 58%

Dew Point: 64 °F

Location of Tel AvivLocation

Past Weather in Tel Aviv — Graph

°F

Tel Aviv Temperature Yesterday

Maximum temperature yesterday: 84 °F (at 11:50 AM)
Minimum temperature yesterday: 70 °F (at 3:20 AM)
Average temperature yesterday: 77 °F

High & Low Weather Summary for the Past Weeks

 TemperatureHumidityPressure
High90 °F (Sep 18, 12:20 PM)83% (Sep 18, 6:20 AM)30.07 "Hg (Sep 18, 6:20 AM)
Low68 °F (Sep 25, 6:50 AM)24% (Sep 25, 11:50 AM)29.74 "Hg (Sep 25, 1:20 PM)
Average80 °F60%29.89 "Hg
* Reported Sep 13 3:20 PM — Sep 28 3:50 PM, Tel Aviv, Weather by CustomWeather, © 2016

Note: Actual official high and low records may vary slightly from our data, if they occured in-between our weather recording intervals... More about our weather records

Advertising

Tel Aviv Weather History for the Previous 24 Hours

Scroll right to see more
 ConditionsComfort  
Time TempWeatherWind HumidityBarometerVisibility
3:50 PM
Wed, Sep 28
82 °FScattered clouds.15 mph55%30.01 "HgN/A
3:20 PM82 °FScattered clouds.14 mph55%30.04 "HgN/A
2:50 PM82 °FScattered clouds.14 mph55%30.04 "HgN/A
2:20 PM82 °FScattered clouds.15 mph55%30.04 "HgN/A
1:50 PM82 °FScattered clouds.15 mph55%30.04 "HgN/A
1:20 PM82 °FScattered clouds.14 mph55%30.04 "HgN/A
12:50 PM82 °FScattered clouds.10 mph51%30.04 "HgN/A
12:20 PM81 °FScattered clouds.10 mph54%30.04 "HgN/A
11:50 AM82 °FPartly sunny.7 mph48%30.04 "HgN/A
11:20 AM81 °FPartly sunny.7 mph51%30.07 "HgN/A
10:50 AM82 °FPartly sunny.3 mph48%30.07 "HgN/A
10:20 AM81 °FScattered clouds.3 mph51%30.07 "HgN/A
9:50 AM81 °FPassing clouds.3 mph51%30.07 "HgN/A
9:20 AM79 °FPassing clouds.5 mph54%30.07 "HgN/A
8:50 AM77 °FPassing clouds.6 mph57%30.07 "HgN/A
8:20 AM73 °FPassing clouds.5 mph61%30.04 "HgN/A
7:50 AM73 °FPassing clouds.5 mph61%30.04 "HgN/A
7:20 AM72 °FScattered clouds.2 mph65%30.04 "HgN/A
6:50 AM72 °FScattered clouds.3 mph65%30.04 "HgN/A
6:20 AM72 °FPassing clouds.2 mph65%30.01 "HgN/A
5:50 AM70 °FPassing clouds.1 mph69%30.01 "HgN/A
5:20 AM70 °FPassing clouds.3 mph69%30.01 "HgN/A
4:50 AM72 °FPassing clouds.3 mph65%30.01 "HgN/A
4:20 AM72 °FPassing clouds.2 mph65%30.01 "HgN/A
3:50 AM72 °FPassing clouds.3 mph65%30.01 "HgN/A
3:20 AM72 °FPassing clouds.2 mph65%30.01 "HgN/A
2:50 AM72 °FPassing clouds.3 mph65%30.01 "HgN/A
2:20 AM72 °FPassing clouds.3 mph65%30.01 "HgN/A
1:50 AM72 °FPassing clouds.5 mph65%30.01 "HgN/A
1:20 AM73 °FPassing clouds.5 mph61%30.01 "HgN/A
12:50 AM73 °FPassing clouds.6 mph61%30.01 "HgN/A
12:20 AM73 °FPassing clouds.5 mph61%30.01 "HgN/A
11:50 PM
Tue, Sep 27
73 °FPassing clouds.6 mph61%30.01 "HgN/A
11:20 PM75 °FPassing clouds.5 mph57%30.01 "HgN/A
10:50 PM75 °FPassing clouds.3 mph57%30.01 "HgN/A
10:20 PM75 °FPassing clouds.1 mph57%30.01 "HgN/A
9:50 PM75 °FPassing clouds.2 mph61%30.01 "HgN/A
9:20 PM75 °FPassing clouds.1 mph61%30.01 "HgN/A
8:50 PM77 °FPassing clouds.2 mph54%30.01 "HgN/A
8:20 PM77 °FClear.2 mph54%30.01 "Hg10 mi
7:50 PM77 °FPassing clouds.7 mph57%30.01 "HgN/A
7:20 PM77 °FPassing clouds.7 mph54%29.98 "HgN/A
6:50 PM77 °FPassing clouds.8 mph57%29.98 "HgN/A
6:20 PM79 °FScattered clouds.12 mph54%29.98 "HgN/A
5:50 PM79 °FPassing clouds.12 mph58%29.98 "HgN/A
5:20 PM81 °FPassing clouds.13 mph51%29.95 "HgN/A
4:50 PM81 °FPassing clouds.10 mph48%29.95 "HgN/A
4:20 PM81 °FPassing clouds.13 mph51%29.95 "HgN/A
Weather by CustomWeather, © 2016

See weather overviewHow to use our weather pages